Regional Weather Roundup
Issued by NWS

Home | Current Version | Previous Version | Text Only | Print | Product List | Glossary On
Versions: 1 2 3 4 5 6 7 8 9 10 11 12 13 14 15 16 17 18 19 20 21 22 23 24 25 26 27 28 29 30 31 32 33 34 35 36 37 38 39 40 41 42 43 44 45 46 47 48 49 50
000
ASUS46 KPQR 310710
RWROR

OREGON REGIONAL WEATHER ROUNDUP
NATIONAL WEATHER SERVICE PORTLAND OR
1200 AM PDT FRI JUL 31 2015

NOTE: "FAIR" INDICATES FEW OR NO CLOUDS BELOW 12,000 FEET WITH
NO SIGNIFICANT WEATHER AND/OR OBSTRUCTIONS TO VISIBILITY.

ORZ001>013-310800-
NORTHWEST OREGON


CITY           SKY/WX    TMP DP  RH WIND       PRES   REMARKS
ASTORIA        CLEAR     58  54  86 S3        30.06S
NEWPORT        CLEAR     52  50  93 CALM      30.06S
PORTLAND       CLEAR     79  55  43 NW6       29.99R
VANCOUVER WA   CLEAR     80  50  34 CALM      29.99R
SCAPPOOSE      CLEAR     79  49  34 N6        29.99R
HILLSBORO      CLEAR     76  50  40 NW7       29.99S
AURORA         CLEAR     79  51  37 NE3       30.00R
MCMINNVILLE    CLEAR     74  52  46 CALM      30.00R
SALEM          CLEAR     75  51  43 SE3       29.98S
CORVALLIS      CLEAR     75  48  38 W12       30.01R
EUGENE         CLEAR     72  51  47 CALM      30.00R
$$

ORZ021-028-310800-
SOUTHWEST OREGON


CITY           SKY/WX    TMP DP  RH WIND       PRES   REMARKS
NORTH BEND     CLEAR     57  57 100 W5        30.06F
BROOKINGS      PTCLDY    56  56 100 CALM      30.04S
ROSEBURG       PTCLDY    79  51  37 CALM      30.01R
SEXTON SUMMIT  MOCLDY    77  44  30 N12       30.21R
MEDFORD        MOCLDY    86  51  29 S5        30.02R
$$

ORZ014>016-041-310800-
COLUMBIA GORGE


CITY           SKY/WX    TMP DP  RH WIND       PRES   REMARKS
TROUTDALE      CLEAR     77  54  44 CALM      29.98R
THE DALLES     CLEAR     86  45  23 NE3       29.94R
$$

ORZ029>031-041-044-049-050-061>064-502-503-505>511-310800-
EASTERN OREGON


CITY           SKY/WX    TMP DP  RH WIND       PRES   REMARKS
REDMOND        CLOUDY    80  34  19 NW7       30.14S
BEND           MOCLDY    77  36  22 W8        30.18R
PRINEVILLE     CLOUDY    77  32  19 NW5       30.15R
KLAMATH FALLS  PTCLDY    64  47  53 CALM      30.22S
LAKEVIEW       MOCLDY    66  36  32 NE7       30.25S
HERMISTON      PTCLDY    70  46  42 SE5       29.96R
PENDLETON      CLEAR     74  30  19 SE9       30.02S
JOHN DAY       CLEAR     74  29  19 CALM      30.19S
MEACHAM        CLEAR     54  41  61 CALM      30.21S
LA GRANDE      CLEAR     66  36  32 N8        30.13S
BAKER CITY     CLEAR     55  46  71 CALM      30.18S
BURNS          CLEAR     56  33  42 SW6       30.22R
ROME             N/A     68  22  17 S3        30.20R
ONTARIO        CLEAR     63  47  55 CALM      30.10R
$$


USA.gov is the U.S. government's official web portal to all federal, state and local government web resources and services.